STARLINK-5561 (56337 NORAD) Tracking and Keplerian Element Data

This shows tracking and keplerian element data for the satellite.

Feedback or suggestion? Click here.




ElementValue
Catalog56337
NameSTARLINK-5561
Epoch Orbit183
Epoch Day127.16667824
Epoch Year2023
RAAN126.6544
Inclination97.6637
Eccentricity0.0001566
Argument of Perigee89.9127
Mean Anonmoly99.531
Mean Motion15.67833604
Decay Rate-0.00858155
L11 56337U 23058W 23127.16667824 -.00858155 00000+0 -86694-2 0 9995
L22 56337 97.6637 126.6544 0001566 89.9127 99.5310 15.67833604 1838



Live tracking and technical data element details for STARLINK-5561 (NORAD 56337). STARLINK-5561 can be tracked NOW for your location showing map with azimuth and elevation plus other details from your city location.







IsCatalogInMostPopularTable: catalog: 56337, numindb: 3
Update: records affected: 1



GetName: 56337 STARLINK-5561

Hit Count: updated at: Mon, 05 Jun 2023 00:42:35 GMT